This is the latest recevied weather packets stored in our database for station/object SK4BW-10. If no packets are shown the sender has not sent any weather packets the latest 10 day(s).
| Time | Temp. | Humidity | Pressure | Rain* | Wind** | Luminosity | Snow |
|---|---|---|---|---|---|---|---|
| 1777972397 | 3.33° C | 58% | 1005.8 hPa | - | - | - | - |
| 1777971497 | 3.89° C | 57% | 1005.8 hPa | - | - | - | - |
| 1777970596 | 3.33° C | 59% | 1005.6 hPa | - | - | - | - |
| 1777969696 | 2.78° C | 61% | 1005.5 hPa | - | - | - | - |
| 1777968795 | 2.78° C | 60% | 1005.4 hPa | - | - | - | - |
| 1777967894 | 2.78° C | 65% | 1005.3 hPa | - | - | - | - |
| 1777966993 | 2.22° C | 65% | 1005.3 hPa | - | - | - | - |
| 1777966092 | 2.22° C | 69% | 1005.1 hPa | - | - | - | - |
| 1777965192 | 1.67° C | 66% | 1004.9 hPa | - | - | - | - |
| 1777964291 | 1.67° C | 70% | 1004.9 hPa | - | - | - | - |
| 1777963390 | 1.11° C | 68% | 1004.9 hPa | - | - | - | - |
| 1777962489 | 1.11° C | 71% | 1004.8 hPa | - | - | - | - |
| 1777961588 | 1.11° C | 73% | 1004.7 hPa | - | - | - | - |
| 1777960687 | 0.56° C | 76% | 1004.6 hPa | - | - | - | - |
| 1777959786 | 0.56° C | 76% | 1004.6 hPa | - | - | - | - |
| 1777958884 | 0° C | 79% | 1004.4 hPa | - | - | - | - |
| 1777957983 | 0° C | 79% | 1004.2 hPa | - | - | - | - |
| 1777957082 | -0.56° C | 80% | 1004.1 hPa | - | - | - | - |
| 1777956182 | -0.56° C | 80% | 1004 hPa | - | - | - | - |
| 1777955281 | -0.56° C | 81% | 1003.9 hPa | - | - | - | - |
| 1777954380 | -0.56° C | 84% | 1003.9 hPa | - | - | - | - |
| 1777953480 | -0.56° C | 86% | 1003.8 hPa | - | - | - | - |
| 1777952579 | -0.56° C | 86% | 1003.5 hPa | - | - | - | - |
| 1777951678 | -0.56° C | 88% | 1003.6 hPa | - | - | - | - |
| 1777950777 | -0.56° C | 96% | 1003.4 hPa | - | - | - | - |
* Rain since midnight (hover to see other rain measurements)
** Current wind speed in m/s (hover to see current wind gust speed)